FW8732 Weather Reports


Display with metric or nautical units.
time (UTC)temp
F
wind
direction
speed
MPH
gust
MPH
rain 1hr
in
rain 24hr
in
rain mn
in
humidity
%
barometer
mb
20260508181552 53 51 3.0 11.0 0.00 0.94 0.00 67 1001.2
20260508180053 53 87 5.0 12.0 0.00 0.94 0.00 68 1001.4
20260508174603 54 19 5.0 12.0 0.00 0.94 0.00 74 1001.3
20260508173055 53 65 5.0 11.0 0.00 0.94 0.00 71 1001.2
20260508171600 53 54 4.0 11.0 0.00 0.94 0.00 73 1001.6
20260508170058 52 112 6.0 12.0 0.00 0.94 0.00 75 1001.7
20260508164558 52 130 3.0 10.0 0.00 0.94 0.00 76 1001.6
20260508163114 52 33 4.0 9.0 0.00 0.94 0.00 75 1001.6
20260508161557 51 107 4.0 10.0 0.00 0.94 0.00 76 1001.5
20260508160054 52 22 5.0 11.0 0.00 0.94 0.00 74 1001.8
20260508154554 52 65 4.0 9.0 0.00 0.94 0.00 76 1001.7
20260508153057 54 14 4.0 9.0 0.00 0.94 0.00 73 1001.7
20260508151553 54 95 5.0 13.0 0.00 0.94 0.00 75 1001.7
20260508150050 53 7 4.0 13.0 0.00 0.94 0.00 76 1001.8
20260508144555 54 351 4.0 12.0 0.00 0.94 0.00 75 1001.9
20260508143054 52 359 6.0 11.0 0.00 0.94 0.00 79 1001.9
20260508141601 51 54 4.0 9.0 0.00 0.94 0.00 83 1002.1
20260508140055 51 81 3.0 8.0 0.00 0.94 0.00 84 1002.3
20260508134552 49 136 4.0 10.0 0.00 0.94 0.00 85 1002.4
20260508133055 50 105 2.0 10.0 0.00 0.94 0.00 87 1002.6
20260508131556 51 113 4.0 11.0 0.00 0.94 0.00 88 1002.4
20260508130108 50 52 2.0 6.0 0.00 0.94 0.00 91 1002.0
20260508124556 48 92 3.0 7.0 0.00 0.95 0.00 95 1002.0
20260508123055 47 155 3.0 8.0 0.00 0.95 0.00 96 1002.1
20260508121551 46 123 1.0 4.0 0.00 0.95 0.00 98 1002.0
20260508120054 45 137 3.0 6.0 0.00 0.95 0.00 98 1002.4
20260508114553 45 145 1.0 5.0 0.00 0.96 0.00 98 1002.7
20260508113055 45 0 1.0 7.0 0.00 0.96 0.00 99 1002.5
20260508111552 44 50 2.0 7.0 0.00 0.96 0.00 99 1002.4
20260508110109 43 353 2.0 7.0 0.00 0.96 0.00 100 1002.6
20260508104602 42 349 2.0 5.0 0.00 0.98 0.00 99 1002.7
20260508103057 41 17 0.0 3.0 0.00 0.98 0.00 99 1003.0
20260508101556 41 0 0.0 0.0 0.00 0.98 0.00 99 1002.7
20260508100052 41 0 0.0 4.0 0.00 0.98 0.00 99 1002.7
20260508094556 41 0 0.0 3.0 0.00 0.99 0.00 99 1002.4
20260508093101 41 14 2.0 4.0 0.00 0.99 0.00 99 1002.3
20260508091552 41 0 2.0 5.0 0.00 0.99 0.00 99 1002.3
20260508090108 41 27 2.0 5.0 0.00 0.99 0.00 99 1002.3
20260508084553 40 14 2.0 6.0 0.00 1.00 0.00 99 1002.3
20260508083055 40 39 4.0 10.0 0.00 1.00 0.00 99 1002.1
20260508081559 41 23 2.0 5.0 0.00 1.00 0.00 99 1001.6
20260508080054 41 102 2.0 7.0 0.00 1.00 0.00 98 1001.7
20260508074555 42 48 3.0 8.0 0.00 1.02 0.00 98 1001.8
20260508073053 43 41 4.0 8.0 0.00 1.02 0.00 98 1001.8
20260508071555 44 30 2.0 7.0 0.00 1.02 0.00 99 1001.8
20260508070055 45 25 1.0 5.0 0.00 1.02 0.00 99 1001.8
20260508064556 45 46 1.0 3.0 0.00 1.02 0.00 99 1001.6
20260508063055 45 27 3.0 6.0 0.00 1.02 0.00 99 1001.7
20260508061556 46 15 1.0 4.0 0.00 1.02 0.00 99 1002.0
20260508060054 46 345 2.0 6.0 0.00 1.02 0.00 99 1001.7
20260508054632 46 354 1.0 3.0 0.00 1.02 0.00 99 1001.7
20260508053055 46 0 1.0 4.0 0.00 1.02 0.00 99 1001.7
20260508051553 47 16 2.0 4.0 0.00 1.02 0.00 99 1001.5
20260508050054 47 39 1.0 3.0 0.00 1.02 0.00 99 1001.5
20260508044600 47 0 0.0 2.0 0.00 1.02 0.00 100 1001.6
20260508043053 47 0 0.0 0.0 0.00 1.02 0.00 99 1001.6
20260508041600 47 0 0.0 0.0 0.00 1.02 0.00 99 1001.7
20260508040058 46 0 0.0 2.0 0.00 1.02 0.00 99 1001.7
20260508034602 46 235 0.0 2.0 0.00 1.02 0.00 99 1002.1
20260508033052 46 0 1.0 3.0 0.00 1.02 0.00 99 1002.1
20260508031603 47 0 0.0 4.0 0.00 1.02 0.00 99 1002.2
20260508030111 47 0 0.0 3.0 0.00 1.02 0.00 99 1002.3
20260508024555 47 0 0.0 4.0 0.00 1.02 1.02 99 1002.2
20260508023055 48 212 1.0 5.0 0.00 1.02 1.02 99 1002.2
20260508021613 48 235 3.0 6.0 0.00 1.02 1.02 99 1001.9
20260508020053 48 264 2.0 6.0 0.00 1.02 1.02 99 1002.1
20260508014551 48 253 2.0 6.0 0.00 1.02 1.02 99 1002.1
20260508013106 48 249 1.0 6.0 0.00 1.02 1.02 99 1001.9
20260508011557 48 215 2.0 8.0 0.00 1.02 1.02 98 1001.9
20260508010055 49 283 2.0 10.0 0.00 1.02 1.02 98 1002.3
20260508004559 49 236 2.0 9.0 0.00 1.02 1.02 98 1002.2
20260508003105 49 229 2.0 10.0 0.00 1.02 1.02 99 1002.3
20260508001553 50 264 2.0 7.0 0.00 1.02 1.02 99 1002.3
20260508000054 49 245 2.0 6.0 0.00 1.02 1.02 99 1002.5
20260507234554 49 229 2.0 7.0 0.00 1.02 1.02 98 1002.6
20260507233053 50 183 3.0 8.0 0.00 1.02 1.02 98 1002.5
20260507231557 50 187 2.0 7.0 0.00 1.02 1.02 98 1002.4
20260507230050 50 207 2.0 7.0 0.00 1.02 1.02 98 1002.5
20260507224604 50 166 3.0 9.0 0.00 1.02 1.02 98 1002.6
20260507223056 50 196 2.0 11.0 0.01 1.02 1.02 98 1002.5
20260507221551 50 166 5.0 13.0 0.04 1.02 1.02 98 1003.0
20260507220055 50 187 5.0 13.0 0.09 1.02 1.02 98 1002.8
20260507214555 51 228 4.0 12.0 0.16 1.02 1.02 98 1002.8
20260507213055 50 156 4.0 12.0 0.23 1.01 1.01 98 1002.9
20260507211557 49 183 2.0 10.0 0.29 0.98 0.98 98 1002.7
20260507210119 49 184 4.0 11.0 0.32 0.93 0.93 98 1002.2
20260507204557 49 164 4.0 13.0 0.34 0.86 0.86 98 1002.6
20260507203107 49 157 4.0 9.0 0.35 0.78 0.78 98 1003.5
20260507201602 49 192 4.0 12.0 0.35 0.69 0.69 98 1003.8
20260507200104 49 187 5.0 16.0 0.33 0.60 0.60 97 1004.1
20260507194552 49 173 8.0 20.0 0.31 0.51 0.51 97 1004.7
20260507193111 50 205 7.0 15.0 0.29 0.42 0.42 97 1005.1
20260507191557 50 252 6.0 12.0 0.25 0.34 0.34 96 1005.0
20260507190052 51 277 5.0 13.0 0.19 0.27 0.27 96 1005.1
20260507184554 52 226 9.0 23.0 0.12 0.20 0.20 96 1004.9
20260507183059 53 247 8.0 17.0 0.05 0.13 0.13 95 1005.3